Simultaneous Nadir Overpasses (SNOs) Predictions

Prediction of SNOs between FY3D and METOP-C Satellite Orbit:

Table of predicted SNOs for the next 14.0 days since TLE Epoch: 8/7/2020
Index Date (FY3D) Time (FY3D) Lat,Lon (FY3D) SZA (FY3D ) Date (METOP-C) Time (METOP-C) Lat,Lon (METOP-C) SZA (METOP-C ) Distance(km) Time Diff (sec)
1 08/21/2020 17:06:26 73.82, -85.64 62.20 08/21/2020 17:07:31 73.78, -82.51 62.01 97.39 65
2 08/21/2020 17:57:08 -73.73, 81.89 117.89 08/21/2020 17:58:15 -73.65, 84.52 118.10 82.61 67
3 08/21/2020 18:47:49 73.52,-110.31 61.89 08/21/2020 18:48:58 73.50,-108.48 61.79 57.61 69
4 08/21/2020 19:38:31 -73.43, 57.22 118.20 08/21/2020 19:39:42 -73.37, 58.56 118.32 43.00 71
5 08/21/2020 20:29:13 73.27,-135.10 61.64 08/21/2020 20:30:25 73.23,-134.43 61.56 21.81 72
